Overview Statistics Trail Chart Weather Telemetry Raw packets
 

This is the latest recevied weather packets stored in our database for station/object N0HOT. If no packets are shown the sender has not sent any weather packets the latest 10 day(s).

<< 47 48 49 50 51 52 53 >>
Time Temp. Humidity Pressure Rain* Wind** Luminosity Snow
1788336004 20° C 88% 1015 hPa 0 mm - 0 W/m² -
1788335699 20° C 88% 1014.6 hPa 0 mm - 0 W/m² -
1788335394 20° C 88% 1015 hPa 1.27 mm - 0 W/m² -
1788335089 20° C 88% 1014.6 hPa 4.83 mm - 0 W/m² -
1788334784 20° C 88% 1014.6 hPa 7.87 mm - 0 W/m² -
1788334480 20° C 88% 1014.6 hPa 6.1 mm - 0 W/m² -
1788334176 20° C 88% 1015.3 hPa 3.05 mm - 0 W/m² -
1788333872 20° C 88% 1014.3 hPa 1.27 mm - 0 W/m² -
1788333568 20° C 89% 1015 hPa 0 mm - 0 W/m² -
1788333267 20° C 89% 1012.2 hPa 0 mm - 0 W/m² -
1788332964 20° C 89% 1011.8 hPa 0 mm - 0 W/m² -
1788332660 20° C 89% 1012.2 hPa 0 mm - 0 W/m² -
1788332358 20° C 89% 1012.2 hPa 0 mm - 0 W/m² -
1788332053 20° C 89% 1012.2 hPa 0 mm - 0 W/m² -
1788331748 20° C 89% 1011.8 hPa 0 mm - 0 W/m² -
1788331444 20° C 89% 1011.8 hPa 0 mm - 0 W/m² -
1788331140 20° C 88% 1012.2 hPa 0 mm - 0 W/m² -
1788330834 20° C 88% 1011.8 hPa 0 mm - 0 W/m² -
1788330534 20.56° C 88% 1011.8 hPa 0 mm - 0 W/m² -
1788330234 20.56° C 88% 1012.2 hPa 0 mm - 0 W/m² -
1788329933 20.56° C 89% 1011.8 hPa 0 mm - 0 W/m² -
1788329629 20.56° C 89% 1011.8 hPa 0 mm - 0 W/m² -
1788329325 20.56° C 89% 1011.8 hPa 0 mm - 0 W/m² -
1788329020 20.56° C 89% 1011.8 hPa 0 mm - 0 W/m² -
1788328716 20.56° C 89% 1011.5 hPa 0 mm - 0 W/m² -

* Rain latest hour (hover to see other rain measurements)
** Current wind speed in m/s (hover to see current wind gust speed)